Year,Month,Day,Hour,Minute,Value (Times are PST for temperature in C)
2006,10,29,00,00,12.10
2006,10,29,00,01,12.10
2006,10,29,00,02,12.00
2006,10,29,00,03,12.00
2006,10,29,00,04,12.00
2006,10,29,00,05,11.90
2006,10,29,00,06,11.90
2006,10,29,00,07,11.90
2006,10,29,00,08,11.80
2006,10,29,00,09,11.80
2006,10,29,00,10,11.80
2006,10,29,00,11,11.80
2006,10,29,00,12,11.80
2006,10,29,00,13,11.80
2006,10,29,00,14,11.80
2006,10,29,00,15,11.80
2006,10,29,00,16,11.70
2006,10,29,00,17,11.70
2006,10,29,00,18,11.70
2006,10,29,00,19,11.70
2006,10,29,00,20,11.70
2006,10,29,00,21,11.60
2006,10,29,00,22,11.60
2006,10,29,00,23,11.60
2006,10,29,00,24,11.60
2006,10,29,00,25,11.60
2006,10,29,00,26,11.60
2006,10,29,00,27,11.60
2006,10,29,00,28,11.60
2006,10,29,00,29,11.60
2006,10,29,00,30,11.60
2006,10,29,00,31,11.60
2006,10,29,00,32,11.60
2006,10,29,00,33,11.60
2006,10,29,00,34,11.60
2006,10,29,00,35,11.60
2006,10,29,00,36,11.60
2006,10,29,00,37,11.60
2006,10,29,00,38,11.60
2006,10,29,00,39,11.60
2006,10,29,00,40,11.60
2006,10,29,00,41,11.60
2006,10,29,00,42,11.60
2006,10,29,00,43,11.60
2006,10,29,00,44,11.60
2006,10,29,00,45,11.60
2006,10,29,00,46,11.60
2006,10,29,00,47,11.60
2006,10,29,00,48,11.60
2006,10,29,00,49,11.60
2006,10,29,00,50,11.60
2006,10,29,00,51,11.60
2006,10,29,00,52,11.60
2006,10,29,00,53,11.60
2006,10,29,00,54,11.60
2006,10,29,00,55,11.70
2006,10,29,00,56,11.70
2006,10,29,00,57,11.70
2006,10,29,00,58,11.70
2006,10,29,00,59,11.70
2006,10,29,01,00,11.70
2006,10,29,01,01,11.70
2006,10,29,01,02,11.70
2006,10,29,01,03,11.70
2006,10,29,01,04,11.70
2006,10,29,01,05,11.80
2006,10,29,01,06,11.80
2006,10,29,01,07,11.80
2006,10,29,01,08,11.80
2006,10,29,01,09,11.80
2006,10,29,01,10,11.80
2006,10,29,01,11,11.80
2006,10,29,01,12,11.80
2006,10,29,01,13,11.80
2006,10,29,01,14,11.90
2006,10,29,01,15,11.90
2006,10,29,01,16,11.90
2006,10,29,01,17,11.90
2006,10,29,01,18,11.90
2006,10,29,01,19,11.90
2006,10,29,01,20,11.90
2006,10,29,01,21,11.80
2006,10,29,01,22,11.80
2006,10,29,01,23,11.80
2006,10,29,01,24,11.80
2006,10,29,01,25,11.80
2006,10,29,01,26,11.80
2006,10,29,01,27,11.80
2006,10,29,01,28,11.80
2006,10,29,01,29,11.80
2006,10,29,01,30,11.80
2006,10,29,01,31,11.80
2006,10,29,01,32,11.80
2006,10,29,01,33,11.70
2006,10,29,01,34,11.70
2006,10,29,01,35,11.70
2006,10,29,01,36,11.60
2006,10,29,01,37,11.60
2006,10,29,01,38,11.50
2006,10,29,01,39,11.40
2006,10,29,01,40,11.30
2006,10,29,01,41,11.30
2006,10,29,01,42,11.20
2006,10,29,01,43,11.20
2006,10,29,01,44,11.20
2006,10,29,01,45,11.10
2006,10,29,01,46,11.10
2006,10,29,01,47,11.00
2006,10,29,01,48,10.90
2006,10,29,01,49,10.90
2006,10,29,01,50,10.80
2006,10,29,01,51,10.80
2006,10,29,01,52,10.70
2006,10,29,01,53,10.70
2006,10,29,01,54,10.60
2006,10,29,01,55,10.60
2006,10,29,01,56,10.60
2006,10,29,01,57,10.60
2006,10,29,01,58,10.50
2006,10,29,01,59,10.20
2006,10,29,02,00,8.90
2006,10,29,02,01,8.90
2006,10,29,02,02,8.90
2006,10,29,02,03,8.90
2006,10,29,02,04,8.90
2006,10,29,02,05,8.90
2006,10,29,02,06,8.90
2006,10,29,02,07,8.90
2006,10,29,02,08,8.90
2006,10,29,02,09,8.90
2006,10,29,02,10,8.90
2006,10,29,02,11,8.90
2006,10,29,02,12,8.90
2006,10,29,02,13,9.00
2006,10,29,02,14,9.00
2006,10,29,02,15,9.10
2006,10,29,02,16,9.20
2006,10,29,02,17,9.20
2006,10,29,02,18,9.30
2006,10,29,02,19,9.40
2006,10,29,02,20,9.40
2006,10,29,02,21,9.50
2006,10,29,02,22,9.60
2006,10,29,02,23,9.60
2006,10,29,02,24,9.70
2006,10,29,02,25,9.70
2006,10,29,02,26,9.70
2006,10,29,02,27,9.80
2006,10,29,02,28,9.80
2006,10,29,02,29,9.80
2006,10,29,02,30,9.80
2006,10,29,02,31,9.80
2006,10,29,02,32,9.80
2006,10,29,02,33,9.80
2006,10,29,02,34,9.80
2006,10,29,02,35,9.80
2006,10,29,02,36,9.80
2006,10,29,02,37,9.80
2006,10,29,02,38,9.80
2006,10,29,02,39,9.80
2006,10,29,02,40,9.80
2006,10,29,02,41,9.80
2006,10,29,02,42,9.80
2006,10,29,02,43,9.80
2006,10,29,02,44,9.70
2006,10,29,02,45,9.70
2006,10,29,02,46,9.70
2006,10,29,02,47,9.70
2006,10,29,02,48,9.70
2006,10,29,02,49,9.70
2006,10,29,02,50,9.70
2006,10,29,02,51,9.70
2006,10,29,02,52,9.70
2006,10,29,02,53,9.70
2006,10,29,02,54,9.70
2006,10,29,02,55,9.70
2006,10,29,02,56,9.70
2006,10,29,02,57,9.70
2006,10,29,02,58,9.70
2006,10,29,02,59,9.70
2006,10,29,03,00,9.70
2006,10,29,03,01,9.70
2006,10,29,03,02,9.70
2006,10,29,03,03,9.70
2006,10,29,03,04,9.70
2006,10,29,03,05,9.60
2006,10,29,03,06,9.70
2006,10,29,03,07,9.60
2006,10,29,03,08,9.60
2006,10,29,03,09,9.60
2006,10,29,03,10,9.50
2006,10,29,03,11,9.50
2006,10,29,03,12,9.50
2006,10,29,03,13,9.50
2006,10,29,03,14,9.40
2006,10,29,03,15,9.40
2006,10,29,03,16,9.40
2006,10,29,03,17,9.40
2006,10,29,03,18,9.40
2006,10,29,03,19,9.40
2006,10,29,03,20,9.40
2006,10,29,03,21,9.40
2006,10,29,03,22,9.40
2006,10,29,03,23,9.40
2006,10,29,03,24,9.30
2006,10,29,03,25,9.30
2006,10,29,03,26,9.30
2006,10,29,03,27,9.30
2006,10,29,03,28,9.30
2006,10,29,03,29,9.30
2006,10,29,03,30,9.30
2006,10,29,03,31,9.30
2006,10,29,03,32,9.30
2006,10,29,03,33,9.30
2006,10,29,03,34,9.30
2006,10,29,03,35,9.30
2006,10,29,03,36,9.30
2006,10,29,03,37,9.30
2006,10,29,03,38,9.30
2006,10,29,03,39,9.30
2006,10,29,03,40,9.30
2006,10,29,03,41,9.30
2006,10,29,03,42,9.30
2006,10,29,03,43,9.20
2006,10,29,03,44,9.20
2006,10,29,03,45,9.20
2006,10,29,03,46,9.20
2006,10,29,03,47,9.20
2006,10,29,03,48,9.20
2006,10,29,03,49,9.20
2006,10,29,03,50,9.20
2006,10,29,03,51,9.20
2006,10,29,03,52,9.20
2006,10,29,03,53,9.20
2006,10,29,03,54,9.20
2006,10,29,03,55,9.20
2006,10,29,03,56,9.10
2006,10,29,03,57,9.10
2006,10,29,03,58,9.10
2006,10,29,03,59,9.10
2006,10,29,04,00,9.10
2006,10,29,04,01,9.00
2006,10,29,04,02,9.00
2006,10,29,04,03,9.00
2006,10,29,04,04,9.00
2006,10,29,04,05,9.00
2006,10,29,04,06,9.00
2006,10,29,04,07,9.00
2006,10,29,04,08,9.00
2006,10,29,04,09,9.00
2006,10,29,04,10,9.00
2006,10,29,04,11,9.00
2006,10,29,04,12,9.00
2006,10,29,04,13,9.00
2006,10,29,04,14,9.00
2006,10,29,04,15,8.90
2006,10,29,04,16,8.90
2006,10,29,04,17,8.90
2006,10,29,04,18,8.90
2006,10,29,04,19,8.90
2006,10,29,04,20,8.90
2006,10,29,04,21,8.90
2006,10,29,04,22,8.90
2006,10,29,04,23,8.90
2006,10,29,04,24,8.90
2006,10,29,04,25,8.80
2006,10,29,04,26,8.80
2006,10,29,04,27,8.80
2006,10,29,04,28,8.80
2006,10,29,04,29,8.80
2006,10,29,04,30,8.80
2006,10,29,04,31,8.80
2006,10,29,04,32,8.80
2006,10,29,04,33,8.80
2006,10,29,04,34,8.70
2006,10,29,04,35,8.70
2006,10,29,04,36,8.70
2006,10,29,04,37,8.70
2006,10,29,04,38,8.80
2006,10,29,04,39,8.80
2006,10,29,04,40,8.70
2006,10,29,04,41,8.80
2006,10,29,04,42,8.80
2006,10,29,04,43,8.80
2006,10,29,04,44,8.80
2006,10,29,04,45,8.80
2006,10,29,04,46,8.70
2006,10,29,04,47,8.80
2006,10,29,04,48,8.80
2006,10,29,04,49,8.70
2006,10,29,04,50,8.70
2006,10,29,04,51,8.70
2006,10,29,04,52,8.70
2006,10,29,04,53,8.70
2006,10,29,04,54,8.70
2006,10,29,04,55,8.70
2006,10,29,04,56,8.70
2006,10,29,04,57,8.70
2006,10,29,04,58,8.70
2006,10,29,04,59,8.70
2006,10,29,05,00,8.70
2006,10,29,05,01,8.70
2006,10,29,05,02,8.60
2006,10,29,05,03,8.60
2006,10,29,05,04,8.60
2006,10,29,05,05,8.60
2006,10,29,05,06,8.60
2006,10,29,05,07,8.60
2006,10,29,05,08,8.50
2006,10,29,05,09,8.50
2006,10,29,05,10,8.50
2006,10,29,05,11,8.50
2006,10,29,05,12,8.50
2006,10,29,05,13,8.50
2006,10,29,05,14,8.50
2006,10,29,05,15,8.50
2006,10,29,05,16,8.50
2006,10,29,05,17,8.50
2006,10,29,05,18,8.40
2006,10,29,05,19,8.40
2006,10,29,05,20,8.40
2006,10,29,05,21,8.40
2006,10,29,05,22,8.40
2006,10,29,05,23,8.40
2006,10,29,05,24,8.40
2006,10,29,05,25,8.40
2006,10,29,05,26,8.30
2006,10,29,05,27,8.30
2006,10,29,05,28,8.30
2006,10,29,05,29,8.30
2006,10,29,05,30,8.30
2006,10,29,05,31,8.30
2006,10,29,05,32,8.40
2006,10,29,05,33,8.40
2006,10,29,05,34,8.40
2006,10,29,05,35,8.30
2006,10,29,05,36,8.30
2006,10,29,05,37,8.30
2006,10,29,05,38,8.30
2006,10,29,05,39,8.30
2006,10,29,05,40,8.30
2006,10,29,05,41,8.30
2006,10,29,05,42,8.20
2006,10,29,05,43,8.30
2006,10,29,05,44,8.30
2006,10,29,05,45,8.30
2006,10,29,05,46,8.30
2006,10,29,05,47,8.30
2006,10,29,05,48,8.30
2006,10,29,05,49,8.30
2006,10,29,05,50,8.20
2006,10,29,05,51,8.20
2006,10,29,05,52,8.20
2006,10,29,05,53,8.20
2006,10,29,05,54,8.20
2006,10,29,05,55,8.20
2006,10,29,05,56,8.20
2006,10,29,05,57,8.20
2006,10,29,05,58,8.20
2006,10,29,05,59,8.20
2006,10,29,06,00,8.20
2006,10,29,06,01,8.20
2006,10,29,06,02,8.20
2006,10,29,06,03,8.20
2006,10,29,06,04,8.20
2006,10,29,06,05,8.20
2006,10,29,06,06,8.20
2006,10,29,06,07,8.20
2006,10,29,06,08,8.20
2006,10,29,06,09,8.20
2006,10,29,06,10,8.20
2006,10,29,06,11,8.20
2006,10,29,06,12,8.20
2006,10,29,06,13,8.20
2006,10,29,06,14,8.30
2006,10,29,06,15,8.30
2006,10,29,06,16,8.30
2006,10,29,06,17,8.30
2006,10,29,06,18,8.30
2006,10,29,06,19,8.30
2006,10,29,06,20,8.20
2006,10,29,06,21,8.20
2006,10,29,06,22,8.30
2006,10,29,06,23,8.30
2006,10,29,06,24,8.30
2006,10,29,06,25,8.30
2006,10,29,06,26,8.30
2006,10,29,06,27,8.30
2006,10,29,06,28,8.30
2006,10,29,06,29,8.30
2006,10,29,06,30,8.30
2006,10,29,06,31,8.30
2006,10,29,06,32,8.30
2006,10,29,06,33,8.30
2006,10,29,06,34,8.30
2006,10,29,06,35,8.30
2006,10,29,06,36,8.30
2006,10,29,06,37,8.30
2006,10,29,06,38,8.20
2006,10,29,06,39,8.20
2006,10,29,06,40,8.20
2006,10,29,06,41,8.20
2006,10,29,06,42,8.20
2006,10,29,06,43,8.30
2006,10,29,06,44,8.30
2006,10,29,06,45,8.30
2006,10,29,06,46,8.20
2006,10,29,06,47,8.20
2006,10,29,06,48,8.20
2006,10,29,06,49,8.20
2006,10,29,06,50,8.20
2006,10,29,06,51,8.10
2006,10,29,06,52,8.10
2006,10,29,06,53,8.10
2006,10,29,06,54,8.20
2006,10,29,06,55,8.20
2006,10,29,06,56,8.20
2006,10,29,06,57,8.20
2006,10,29,06,58,8.20
2006,10,29,06,59,8.30
2006,10,29,07,00,8.30
2006,10,29,07,01,8.30
2006,10,29,07,02,8.30
2006,10,29,07,03,8.30
2006,10,29,07,04,8.40
2006,10,29,07,05,8.40
2006,10,29,07,06,8.40
2006,10,29,07,07,8.40
2006,10,29,07,08,8.40
2006,10,29,07,09,8.40
2006,10,29,07,10,8.40
2006,10,29,07,11,8.50
2006,10,29,07,12,8.50
2006,10,29,07,13,8.50
2006,10,29,07,14,8.50
2006,10,29,07,15,8.50
2006,10,29,07,16,8.50
2006,10,29,07,17,8.60
2006,10,29,07,18,8.60
2006,10,29,07,19,8.60
2006,10,29,07,20,8.60
2006,10,29,07,21,8.60
2006,10,29,07,22,8.60
2006,10,29,07,23,8.60
2006,10,29,07,24,8.60
2006,10,29,07,25,8.50
2006,10,29,07,26,8.50
2006,10,29,07,27,8.50
2006,10,29,07,28,8.50
2006,10,29,07,29,8.40
2006,10,29,07,30,8.40
2006,10,29,07,31,8.40
2006,10,29,07,32,8.40
2006,10,29,07,33,8.50
2006,10,29,07,34,8.50
2006,10,29,07,35,8.50
2006,10,29,07,36,8.50
2006,10,29,07,37,8.50
2006,10,29,07,38,8.50
2006,10,29,07,39,8.50
2006,10,29,07,40,8.40
2006,10,29,07,41,8.40
2006,10,29,07,42,8.40
2006,10,29,07,43,8.40
2006,10,29,07,44,8.40
2006,10,29,07,45,8.30
2006,10,29,07,46,8.30
2006,10,29,07,47,8.30
2006,10,29,07,48,8.30
2006,10,29,07,49,8.30
2006,10,29,07,50,8.30
2006,10,29,07,51,8.20
2006,10,29,07,52,8.20
2006,10,29,07,53,8.20
2006,10,29,07,54,8.20
2006,10,29,07,55,8.20
2006,10,29,07,56,8.20
2006,10,29,07,57,8.20
2006,10,29,07,58,8.20
2006,10,29,07,59,8.20
2006,10,29,08,00,8.20
2006,10,29,08,01,8.20
2006,10,29,08,02,8.20
2006,10,29,08,03,8.20
2006,10,29,08,04,8.20
2006,10,29,08,05,8.30
2006,10,29,08,06,8.40
2006,10,29,08,07,8.40
2006,10,29,08,08,8.50
2006,10,29,08,09,8.50
2006,10,29,08,10,8.50
2006,10,29,08,11,8.50
2006,10,29,08,12,8.50
2006,10,29,08,13,8.60
2006,10,29,08,14,8.60
2006,10,29,08,15,8.70
2006,10,29,08,16,8.70
2006,10,29,08,17,8.70
2006,10,29,08,18,8.70
2006,10,29,08,19,8.70
2006,10,29,08,20,8.70
2006,10,29,08,21,8.70
2006,10,29,08,22,8.80
2006,10,29,08,23,8.80
2006,10,29,08,24,8.90
2006,10,29,08,25,8.90
2006,10,29,08,26,8.90
2006,10,29,08,27,9.00
2006,10,29,08,28,9.00
2006,10,29,08,29,9.00
2006,10,29,08,30,9.00
2006,10,29,08,31,9.10
2006,10,29,08,32,9.10
2006,10,29,08,33,9.20
2006,10,29,08,34,9.20
2006,10,29,08,35,9.20
2006,10,29,08,36,9.30
2006,10,29,08,37,9.30
2006,10,29,08,38,9.30
2006,10,29,08,39,9.30
2006,10,29,08,40,9.20
2006,10,29,08,41,9.20
2006,10,29,08,42,9.20
2006,10,29,08,43,9.30
2006,10,29,08,44,9.30
2006,10,29,08,45,9.30
2006,10,29,08,46,9.30
2006,10,29,08,47,9.30
2006,10,29,08,48,9.30
2006,10,29,08,49,9.30
2006,10,29,08,50,9.30
2006,10,29,08,51,9.30
2006,10,29,08,52,9.30
2006,10,29,08,53,9.30
2006,10,29,08,54,9.30
2006,10,29,08,55,9.30
2006,10,29,08,56,9.30
2006,10,29,08,57,9.30
2006,10,29,08,58,9.30
2006,10,29,08,59,9.30
2006,10,29,09,00,9.30
2006,10,29,09,01,9.30
2006,10,29,09,02,9.30
2006,10,29,09,03,9.30
2006,10,29,09,04,9.30
2006,10,29,09,05,9.30
2006,10,29,09,06,9.30
2006,10,29,09,07,9.30
2006,10,29,09,08,9.40
2006,10,29,09,09,9.50
2006,10,29,09,10,9.60
2006,10,29,09,11,9.70
2006,10,29,09,12,9.70
2006,10,29,09,13,9.70
2006,10,29,09,14,9.70
2006,10,29,09,15,9.70
2006,10,29,09,16,9.70
2006,10,29,09,17,9.80
2006,10,29,09,18,9.80
2006,10,29,09,19,9.70
2006,10,29,09,20,9.70
2006,10,29,09,21,9.70
2006,10,29,09,22,9.70
2006,10,29,09,23,9.70
2006,10,29,09,24,9.70
2006,10,29,09,25,9.60
2006,10,29,09,26,9.60
2006,10,29,09,27,9.60
2006,10,29,09,28,9.60
2006,10,29,09,29,9.70
2006,10,29,09,30,9.70
2006,10,29,09,31,9.70
2006,10,29,09,32,9.70
2006,10,29,09,33,9.70
2006,10,29,09,34,9.70
2006,10,29,09,35,9.80
2006,10,29,09,36,9.80
2006,10,29,09,37,9.80
2006,10,29,09,38,9.80
2006,10,29,09,39,9.90
2006,10,29,09,40,9.90
2006,10,29,09,41,9.90
2006,10,29,09,42,9.90
2006,10,29,09,43,9.90
2006,10,29,09,44,9.90
2006,10,29,09,45,9.90
2006,10,29,09,46,10.00
2006,10,29,09,47,10.10
2006,10,29,09,48,10.10
2006,10,29,09,49,10.20
2006,10,29,09,50,10.20
2006,10,29,09,51,10.20
2006,10,29,09,52,10.20
2006,10,29,09,53,10.20
2006,10,29,09,54,10.20
2006,10,29,09,55,10.20
2006,10,29,09,56,10.30
2006,10,29,09,57,10.30
2006,10,29,09,58,10.30
2006,10,29,09,59,10.30
2006,10,29,10,00,10.30
2006,10,29,10,01,10.30
2006,10,29,10,02,10.40
2006,10,29,10,03,10.40
2006,10,29,10,04,10.40
2006,10,29,10,05,10.30
2006,10,29,10,06,10.30
2006,10,29,10,07,10.20
2006,10,29,10,08,10.20
2006,10,29,10,09,10.20
2006,10,29,10,10,10.20
2006,10,29,10,11,10.20
2006,10,29,10,12,10.20
2006,10,29,10,13,10.40
2006,10,29,10,14,10.40
2006,10,29,10,15,10.40
2006,10,29,10,16,10.40
2006,10,29,10,17,10.40
2006,10,29,10,18,10.40
2006,10,29,10,19,10.50
2006,10,29,10,20,10.60
2006,10,29,10,21,10.70
2006,10,29,10,22,10.80
2006,10,29,10,23,10.90
2006,10,29,10,24,11.00
2006,10,29,10,25,11.10
2006,10,29,10,26,11.10
2006,10,29,10,27,11.00
2006,10,29,10,28,11.00
2006,10,29,10,29,11.10
2006,10,29,10,30,11.10
2006,10,29,10,31,11.10
2006,10,29,10,32,11.10
2006,10,29,10,33,11.10
2006,10,29,10,34,11.20
2006,10,29,10,35,11.30
2006,10,29,10,36,11.30
2006,10,29,10,37,11.40
2006,10,29,10,38,11.40
2006,10,29,10,39,11.40
2006,10,29,10,40,11.50
2006,10,29,10,41,11.60
2006,10,29,10,42,11.50
2006,10,29,10,43,11.40
2006,10,29,10,44,11.20
2006,10,29,10,45,11.00
2006,10,29,10,46,10.80
2006,10,29,10,47,10.60
2006,10,29,10,48,10.40
2006,10,29,10,49,10.30
2006,10,29,10,50,10.10
2006,10,29,10,51,10.00
2006,10,29,10,52,9.90
2006,10,29,10,53,9.80
2006,10,29,10,54,9.70
2006,10,29,10,55,9.60
2006,10,29,10,56,9.50
2006,10,29,10,57,9.50
2006,10,29,10,58,9.40
2006,10,29,10,59,9.40
2006,10,29,11,00,9.30
2006,10,29,11,01,9.30
2006,10,29,11,02,9.20
2006,10,29,11,03,9.20
2006,10,29,11,04,9.20
2006,10,29,11,05,9.20
2006,10,29,11,06,9.20
2006,10,29,11,07,9.10
2006,10,29,11,08,9.00
2006,10,29,11,09,8.90
2006,10,29,11,10,8.90
2006,10,29,11,11,8.80
2006,10,29,11,12,8.70
2006,10,29,11,13,8.70
2006,10,29,11,14,8.70
2006,10,29,11,15,8.70
2006,10,29,11,16,8.70
2006,10,29,11,17,8.70
2006,10,29,11,18,8.70
2006,10,29,11,19,8.70
2006,10,29,11,20,8.70
2006,10,29,11,21,8.70
2006,10,29,11,22,8.70
2006,10,29,11,23,8.70
2006,10,29,11,24,8.70
2006,10,29,11,25,8.60
2006,10,29,11,26,8.50
2006,10,29,11,27,8.30
2006,10,29,11,28,8.20
2006,10,29,11,29,8.20
2006,10,29,11,30,8.20
2006,10,29,11,31,8.20
2006,10,29,11,32,8.20
2006,10,29,11,33,8.10
2006,10,29,11,34,8.10
2006,10,29,11,35,8.10
2006,10,29,11,36,8.10
2006,10,29,11,37,8.10
2006,10,29,11,38,8.10
2006,10,29,11,39,8.10
2006,10,29,11,40,8.20
2006,10,29,11,41,8.10
2006,10,29,11,42,8.10
2006,10,29,11,43,8.10
2006,10,29,11,44,8.20
2006,10,29,11,45,8.30
2006,10,29,11,46,8.30
2006,10,29,11,47,8.30
2006,10,29,11,48,8.40
2006,10,29,11,49,8.40
2006,10,29,11,50,8.40
2006,10,29,11,51,8.50
2006,10,29,11,52,8.50
2006,10,29,11,53,8.60
2006,10,29,11,54,8.60
2006,10,29,11,55,8.70
2006,10,29,11,56,8.70
2006,10,29,11,57,8.70
2006,10,29,11,58,8.70
2006,10,29,11,59,8.70
2006,10,29,12,00,8.70
2006,10,29,12,01,8.70
2006,10,29,12,02,8.70
2006,10,29,12,03,8.80
2006,10,29,12,04,8.80
2006,10,29,12,05,8.90
2006,10,29,12,06,8.90
2006,10,29,12,07,9.00
2006,10,29,12,08,9.00
2006,10,29,12,09,9.00
2006,10,29,12,10,8.90
2006,10,29,12,11,8.90
2006,10,29,12,12,9.00
2006,10,29,12,13,9.00
2006,10,29,12,14,9.00
2006,10,29,12,15,9.00
2006,10,29,12,16,9.00
2006,10,29,12,17,9.00
2006,10,29,12,18,9.00
2006,10,29,12,19,9.00
2006,10,29,12,20,8.90
2006,10,29,12,21,8.80
2006,10,29,12,22,8.70
2006,10,29,12,23,8.70
2006,10,29,12,24,8.70
2006,10,29,12,25,8.70
2006,10,29,12,26,8.70
2006,10,29,12,27,8.70
2006,10,29,12,28,8.70
2006,10,29,12,29,8.70
2006,10,29,12,30,8.70
2006,10,29,12,31,8.70
2006,10,29,12,32,8.80
2006,10,29,12,33,8.90
2006,10,29,12,34,9.00
2006,10,29,12,35,9.10
2006,10,29,12,36,9.10
2006,10,29,12,37,9.20
2006,10,29,12,38,9.20
2006,10,29,12,39,9.20
2006,10,29,12,40,9.20
2006,10,29,12,41,9.20
2006,10,29,12,42,9.20
2006,10,29,12,43,9.20
2006,10,29,12,44,9.20
2006,10,29,12,45,9.20
2006,10,29,12,46,9.20
2006,10,29,12,47,9.20
2006,10,29,12,48,9.20
2006,10,29,12,49,9.20
2006,10,29,12,50,9.20
2006,10,29,12,51,9.20
2006,10,29,12,52,9.20
2006,10,29,12,53,9.20
2006,10,29,12,54,9.30
2006,10,29,12,55,9.30
2006,10,29,12,56,9.30
2006,10,29,12,57,9.40
2006,10,29,12,58,9.40
2006,10,29,12,59,9.40
2006,10,29,13,00,9.50
2006,10,29,13,01,9.50
2006,10,29,13,02,9.50
2006,10,29,13,03,9.50
2006,10,29,13,04,9.50
2006,10,29,13,05,9.50
2006,10,29,13,06,9.50
2006,10,29,13,07,9.50
2006,10,29,13,08,9.50
2006,10,29,13,09,9.50
2006,10,29,13,10,9.60
2006,10,29,13,11,9.60
2006,10,29,13,12,9.60
2006,10,29,13,13,9.70
2006,10,29,13,14,9.60
2006,10,29,13,15,9.00
2006,10,29,13,16,8.40
2006,10,29,13,17,7.90
2006,10,29,13,18,7.50
2006,10,29,13,19,7.30
2006,10,29,13,20,7.10
2006,10,29,13,21,7.00
2006,10,29,13,22,6.90
2006,10,29,13,23,6.80
2006,10,29,13,24,6.80
2006,10,29,13,25,6.80
2006,10,29,13,26,6.80
2006,10,29,13,27,6.80
2006,10,29,13,28,6.70
2006,10,29,13,29,6.80
2006,10,29,13,30,6.70
2006,10,29,13,31,6.70
2006,10,29,13,32,6.70
2006,10,29,13,33,6.60
2006,10,29,13,34,6.60
2006,10,29,13,35,6.60
2006,10,29,13,36,6.60
2006,10,29,13,37,6.60
2006,10,29,13,38,6.60
2006,10,29,13,39,6.60
2006,10,29,13,40,6.60
2006,10,29,13,41,6.60
2006,10,29,13,42,6.60
2006,10,29,13,43,6.60
2006,10,29,13,44,6.60
2006,10,29,13,45,6.60
2006,10,29,13,46,6.60
2006,10,29,13,47,6.70
2006,10,29,13,48,6.80
2006,10,29,13,49,7.00
2006,10,29,13,50,7.10
2006,10,29,13,51,7.20
2006,10,29,13,52,7.30
2006,10,29,13,53,7.30
2006,10,29,13,54,7.30
2006,10,29,13,55,7.40
2006,10,29,13,56,7.50
2006,10,29,13,57,7.60
2006,10,29,13,58,7.60
2006,10,29,13,59,7.60
2006,10,29,14,00,7.70
2006,10,29,14,01,7.70
2006,10,29,14,02,7.80
2006,10,29,14,03,7.80
2006,10,29,14,04,7.90
2006,10,29,14,05,8.00
2006,10,29,14,06,8.10
2006,10,29,14,07,8.20
2006,10,29,14,08,8.40
2006,10,29,14,09,8.60
2006,10,29,14,10,8.90
2006,10,29,14,11,9.10
2006,10,29,14,12,9.30
2006,10,29,14,13,9.50
2006,10,29,14,14,9.60
2006,10,29,14,15,9.70
2006,10,29,14,16,9.70
2006,10,29,14,17,9.80
2006,10,29,14,18,9.80
2006,10,29,14,19,9.80
2006,10,29,14,20,9.90
2006,10,29,14,21,9.90
2006,10,29,14,22,9.90
2006,10,29,14,23,9.90
2006,10,29,14,24,9.90
2006,10,29,14,25,9.90
2006,10,29,14,26,9.90
2006,10,29,14,27,9.90
2006,10,29,14,28,9.90
2006,10,29,14,29,9.90
2006,10,29,14,30,9.90
2006,10,29,14,31,9.90
2006,10,29,14,32,9.90
2006,10,29,14,33,9.90
2006,10,29,14,34,9.90
2006,10,29,14,35,9.90
2006,10,29,14,36,9.90
2006,10,29,14,37,9.90
2006,10,29,14,38,10.00
2006,10,29,14,39,10.10
2006,10,29,14,40,10.10
2006,10,29,14,41,10.10
2006,10,29,14,42,10.10
2006,10,29,14,43,10.10
2006,10,29,14,44,10.10
2006,10,29,14,45,10.10
2006,10,29,14,46,10.00
2006,10,29,14,47,9.90
2006,10,29,14,48,9.90
2006,10,29,14,49,9.90
2006,10,29,14,50,9.90
2006,10,29,14,51,9.90
2006,10,29,14,52,10.00
2006,10,29,14,53,9.90
2006,10,29,14,54,9.90
2006,10,29,14,55,9.90
2006,10,29,14,56,9.90
2006,10,29,14,57,9.80
2006,10,29,14,58,9.80
2006,10,29,14,59,9.80
2006,10,29,15,00,9.80
2006,10,29,15,01,9.80
2006,10,29,15,02,9.70
2006,10,29,15,03,9.70
2006,10,29,15,04,9.70
2006,10,29,15,05,9.70
2006,10,29,15,06,9.70
2006,10,29,15,07,9.80
2006,10,29,15,08,9.80
2006,10,29,15,09,9.80
2006,10,29,15,10,9.90
2006,10,29,15,11,9.90
2006,10,29,15,12,9.90
2006,10,29,15,13,9.90
2006,10,29,15,14,9.80
2006,10,29,15,15,9.80
2006,10,29,15,16,9.80
2006,10,29,15,17,9.80
2006,10,29,15,18,9.80
2006,10,29,15,19,9.80
2006,10,29,15,20,9.80
2006,10,29,15,21,9.80
2006,10,29,15,22,9.80
2006,10,29,15,23,9.70
2006,10,29,15,24,9.70
2006,10,29,15,25,9.70
2006,10,29,15,26,9.70
2006,10,29,15,27,9.70
2006,10,29,15,28,9.70
2006,10,29,15,29,9.70
2006,10,29,15,30,9.70
2006,10,29,15,31,9.70
2006,10,29,15,32,9.70
2006,10,29,15,33,9.70
2006,10,29,15,34,9.70
2006,10,29,15,35,9.70
2006,10,29,15,36,9.70
2006,10,29,15,37,9.80
2006,10,29,15,38,9.80
2006,10,29,15,39,9.80
2006,10,29,15,40,9.80
2006,10,29,15,41,9.90
2006,10,29,15,42,9.90
2006,10,29,15,43,9.90
2006,10,29,15,44,9.90
2006,10,29,15,45,9.90
2006,10,29,15,46,9.90
2006,10,29,15,47,9.90
2006,10,29,15,48,9.90
2006,10,29,15,49,9.90
2006,10,29,15,50,9.90
2006,10,29,15,51,9.90
2006,10,29,15,52,9.90
2006,10,29,15,53,9.90
2006,10,29,15,54,9.90
2006,10,29,15,55,9.90
2006,10,29,15,56,9.90
2006,10,29,15,57,9.90
2006,10,29,15,58,9.90
2006,10,29,15,59,9.80
2006,10,29,16,00,9.80
2006,10,29,16,01,9.80
2006,10,29,16,02,9.80
2006,10,29,16,03,9.80
2006,10,29,16,04,9.80
2006,10,29,16,05,9.70
2006,10,29,16,06,9.70
2006,10,29,16,07,9.70
2006,10,29,16,08,9.70
2006,10,29,16,09,9.70
2006,10,29,16,10,9.70
2006,10,29,16,11,9.60
2006,10,29,16,12,9.60
2006,10,29,16,13,9.60
2006,10,29,16,14,9.60
2006,10,29,16,15,9.60
2006,10,29,16,16,9.50
2006,10,29,16,17,9.50
2006,10,29,16,18,9.50
2006,10,29,16,19,9.50
2006,10,29,16,20,9.40
2006,10,29,16,21,9.40
2006,10,29,16,22,9.30
2006,10,29,16,23,9.30
2006,10,29,16,24,9.30
2006,10,29,16,25,9.20
2006,10,29,16,26,9.20
2006,10,29,16,27,9.20
2006,10,29,16,28,9.20
2006,10,29,16,29,9.20
2006,10,29,16,30,9.20
2006,10,29,16,31,9.20
2006,10,29,16,32,9.20
2006,10,29,16,33,9.10
2006,10,29,16,34,9.10
2006,10,29,16,35,9.10
2006,10,29,16,36,9.10
2006,10,29,16,37,9.00
2006,10,29,16,38,8.90
2006,10,29,16,39,8.90
2006,10,29,16,40,8.90
2006,10,29,16,41,8.90
2006,10,29,16,42,8.90
2006,10,29,16,43,8.90
2006,10,29,16,44,8.80
2006,10,29,16,45,8.80
2006,10,29,16,46,8.80
2006,10,29,16,47,8.80
2006,10,29,16,48,8.80
2006,10,29,16,49,8.80
2006,10,29,16,50,8.70
2006,10,29,16,51,8.70
2006,10,29,16,52,8.70
2006,10,29,16,53,8.70
2006,10,29,16,54,8.70
2006,10,29,16,55,8.70
2006,10,29,16,56,8.70
2006,10,29,16,57,8.60
2006,10,29,16,58,8.60
2006,10,29,16,59,8.60
2006,10,29,17,00,8.60
2006,10,29,17,01,8.60
2006,10,29,17,02,8.60
2006,10,29,17,03,8.50
2006,10,29,17,04,8.50
2006,10,29,17,05,8.50
2006,10,29,17,06,8.40
2006,10,29,17,07,8.40
2006,10,29,17,08,8.40
2006,10,29,17,09,8.40
2006,10,29,17,10,8.40
2006,10,29,17,11,8.40
2006,10,29,17,12,8.40
2006,10,29,17,13,8.40
2006,10,29,17,14,8.40
2006,10,29,17,15,8.40
2006,10,29,17,16,8.40
2006,10,29,17,17,8.30
2006,10,29,17,18,8.30
2006,10,29,17,19,8.20
2006,10,29,17,20,8.20
2006,10,29,17,21,8.20
2006,10,29,17,22,8.20
2006,10,29,17,23,8.20
2006,10,29,17,24,8.20
2006,10,29,17,25,8.20
2006,10,29,17,26,8.20
2006,10,29,17,27,8.10
2006,10,29,17,28,8.10
2006,10,29,17,29,8.10
2006,10,29,17,30,8.10
2006,10,29,17,31,8.10
2006,10,29,17,32,8.00
2006,10,29,17,33,8.00
2006,10,29,17,34,8.00
2006,10,29,17,35,8.00
2006,10,29,17,36,8.00
2006,10,29,17,37,8.00
2006,10,29,17,38,8.00
2006,10,29,17,39,8.00
2006,10,29,17,40,7.90
2006,10,29,17,41,7.90
2006,10,29,17,42,7.90
2006,10,29,17,43,7.90
2006,10,29,17,44,7.90
2006,10,29,17,45,7.80
2006,10,29,17,46,7.80
2006,10,29,17,47,7.80
2006,10,29,17,48,7.80
2006,10,29,17,49,7.80
2006,10,29,17,50,7.80
2006,10,29,17,51,7.80
2006,10,29,17,52,7.70
2006,10,29,17,53,7.70
2006,10,29,17,54,7.70
2006,10,29,17,55,7.70
2006,10,29,17,56,7.70
2006,10,29,17,57,7.70